Weather History for Liberal, KS

Change the Weather History Date:

Monday, January 14, 2013

  Actual Average Record
Temperature  
Mean Temperature 21 °F -  
Max Temperature 28 °F 49 °F 72 °F (1986)
Min Temperature 14 °F 19 °F -7 °F (1979)
Degree Days  
Heating Degree Days 44    
Moisture  
Dew Point 10 °F    
Average Humidity 59    
Maximum Humidity 73    
Minimum Humidity 43    
Precipitation  
Precipitation 0.00 in - - ()
Sea Level Pressure  
Sea Level Pressure 30.26 in    
Wind  
Wind Speed 6 mph (SE)    
Max Wind Speed 15 mph    
Max Gust Speed 20 mph    
Visibility 10 miles    
Events      
Averages and records for this station are not official NWS values.
T = Trace of Precipitation, MM = Missing Value Source: NWS Daily Summary

Daily Weather History Graph

Daily Weather History Graph

Search for Another Location

Airport:

Trip Planner

Search our weather history database for the weather conditions in past years. The results will help you decide how hot, cold, wet, or windy it might be!

Date:

Astronomy

Jan. 14, 2013 Rise Set
Actual Time 7:56 AM CST 5:49 PM CST
Civil Twilight 7:28 AM CST 6:18 PM CST
Nautical Twilight 6:56 AM CST 6:50 PM CST
Astronomical Twilight 6:24 AM CST 7:21 PM CST
Moon 9:36 AM CST (1/14) 9:31 PM CST (1/14)
Length of Visible Light 10h 50m
Length of Day
9h 53m
Waxing Crescent, 11% of the Moon is Illuminated
Jan 14
Waxing Crescent
Jan 18
First Quarter
Jan 26
Full
Feb 3
Last Quarter
Feb 10
New

Hourly Weather History & Observations

Time (CST) Temp. Windchill Dew Point Humidity Pressure Visibility Wind Dir Wind Speed Gust Speed Precip Events Conditions
12:15 AM 21.2 °F 14.9 °F 8.6 °F 58% 30.26 in 10.0 mi SE 4.6 mph - N/A   Clear
12:35 AM 19.4 °F 12.8 °F 8.6 °F 63% 30.26 in 10.0 mi SE 4.6 mph - N/A   Partly Cloudy
12:55 AM 19.4 °F 14.3 °F 10.4 °F 68% 30.26 in 10.0 mi SE 3.5 mph - N/A   Partly Cloudy
1:15 AM 19.4 °F 12.8 °F 10.4 °F 68% 30.27 in 10.0 mi SE 4.6 mph - N/A   Clear
1:35 AM 19.4 °F 12.8 °F 10.4 °F 68% 30.26 in 10.0 mi SE 4.6 mph - N/A   Clear
1:55 AM 19.4 °F 14.3 °F 10.4 °F 68% 30.25 in 10.0 mi SE 3.5 mph - N/A   Clear
2:15 AM 17.6 °F 10.7 °F 10.4 °F 73% 30.25 in 10.0 mi SE 4.6 mph - N/A   Clear
2:35 AM 17.6 °F 10.7 °F 10.4 °F 73% 30.26 in 10.0 mi SE 4.6 mph - N/A   Mostly Cloudy
2:55 AM 19.4 °F 12.8 °F 10.4 °F 68% 30.27 in 10.0 mi SE 4.6 mph - N/A   Overcast
3:15 AM 19.4 °F 12.8 °F 10.4 °F 68% 30.27 in 10.0 mi SSE 4.6 mph - N/A   Overcast
4:15 AM 19.4 °F 12.8 °F 10.4 °F 68% 30.28 in 10.0 mi SSE 4.6 mph - N/A   Overcast
4:35 AM 19.4 °F 14.3 °F 10.4 °F 68% 30.28 in 10.0 mi SSE 3.5 mph - N/A   Overcast
4:55 AM 17.6 °F 10.7 °F 8.6 °F 68% 30.28 in 10.0 mi SSE 4.6 mph - N/A   Mostly Cloudy
5:15 AM 17.6 °F 9.3 °F 8.6 °F 68% 30.27 in 10.0 mi SSE 5.8 mph - N/A   Overcast
5:35 AM 17.6 °F 10.7 °F 10.4 °F 73% 30.28 in 10.0 mi SSE 4.6 mph - N/A   Overcast
5:55 AM 17.6 °F - 8.6 °F 68% 30.28 in 10.0 mi Calm Calm - N/A   Overcast
6:15 AM 17.6 °F 10.7 °F 8.6 °F 68% 30.29 in 10.0 mi SSE 4.6 mph - N/A   Overcast
6:35 AM 17.6 °F 9.3 °F 8.6 °F 68% 30.29 in 10.0 mi South 5.8 mph - N/A   Overcast
6:55 AM 15.8 °F 7.2 °F 8.6 °F 73% 30.31 in 10.0 mi South 5.8 mph - N/A   Mostly Cloudy
7:15 AM 15.8 °F 8.6 °F 6.8 °F 68% 30.31 in 10.0 mi South 4.6 mph - N/A   Scattered Clouds
7:35 AM 14.0 °F 8.2 °F 6.8 °F 73% 30.31 in 10.0 mi SSE 3.5 mph - N/A   Clear
7:55 AM 15.8 °F 10.2 °F 6.8 °F 68% 30.31 in 10.0 mi SE 3.5 mph - N/A   Clear
8:15 AM 15.8 °F 10.2 °F 6.8 °F 68% 30.32 in 10.0 mi SE 3.5 mph - N/A   Clear
8:35 AM 15.8 °F 10.2 °F 6.8 °F 68% 30.32 in 10.0 mi South 3.5 mph - N/A   Clear
8:55 AM 17.6 °F 12.3 °F 8.6 °F 68% 30.32 in 10.0 mi South 3.5 mph - N/A   Clear
9:15 AM 17.6 °F 8.2 °F 8.6 °F 68% 30.33 in 10.0 mi South 6.9 mph - N/A   Clear
9:35 AM 19.4 °F 11.5 °F 10.4 °F 68% 30.33 in 10.0 mi South 5.8 mph - N/A   Clear
9:55 AM 19.4 °F 11.5 °F 8.6 °F 63% 30.33 in 10.0 mi SSE 5.8 mph - N/A   Clear
10:15 AM 21.2 °F 11.7 °F 10.4 °F 63% 30.32 in 10.0 mi SE 8.1 mph - N/A   Clear
10:35 AM 21.2 °F 13.6 °F 10.4 °F 63% 30.32 in 10.0 mi SE 5.8 mph - N/A   Clear
10:55 AM 21.2 °F 11.7 °F 8.6 °F 58% 30.31 in 10.0 mi SE 8.1 mph - N/A   Clear
11:15 AM 21.2 °F 13.6 °F 8.6 °F 58% 30.31 in 10.0 mi SSE 5.8 mph - N/A   Clear
11:35 AM 23.0 °F 17.0 °F 10.4 °F 59% 30.30 in 10.0 mi SSE 4.6 mph - N/A   Clear
11:55 AM 24.8 °F 16.9 °F 10.4 °F 54% 30.29 in 10.0 mi ESE 6.9 mph - N/A   Scattered Clouds
12:15 PM 24.8 °F 16.1 °F 10.4 °F 54% 30.27 in 10.0 mi East 8.1 mph - N/A   Partly Cloudy
12:35 PM 26.6 °F 18.2 °F 10.4 °F 51% 30.26 in 10.0 mi SSE 8.1 mph - N/A   Clear
12:55 PM 26.6 °F 18.2 °F 10.4 °F 51% 30.24 in 10.0 mi SE 8.1 mph - N/A   Clear
1:15 PM 28.4 °F 20.4 °F 10.4 °F 47% 30.23 in 10.0 mi ESE 8.1 mph - N/A   Clear
1:35 PM 28.4 °F 19.7 °F 10.4 °F 47% 30.22 in 10.0 mi East 9.2 mph - N/A   Clear
2:15 PM 28.4 °F 18.0 °F 10.4 °F 47% 30.20 in 10.0 mi SE 12.7 mph - N/A   Clear
2:35 PM 28.4 °F 18.0 °F 10.4 °F 47% 30.20 in 10.0 mi SE 12.7 mph 16.1 mph N/A   Clear
2:55 PM 28.4 °F 18.0 °F 10.4 °F 47% 30.20 in 10.0 mi SE 12.7 mph 19.6 mph N/A   Clear
3:15 PM 28.4 °F 17.0 °F 8.6 °F 43% 30.20 in 10.0 mi SE 15.0 mph - N/A   Clear
3:35 PM 28.4 °F 17.5 °F 10.4 °F 47% 30.20 in 10.0 mi SE 13.8 mph 18.4 mph N/A   Clear
4:15 PM 28.4 °F 17.5 °F 10.4 °F 47% 30.21 in 10.0 mi SE 13.8 mph 18.4 mph N/A   Clear
4:35 PM 28.4 °F 18.0 °F 8.6 °F 43% 30.21 in 10.0 mi SE 12.7 mph - N/A   Partly Cloudy
4:55 PM 28.4 °F 18.0 °F 10.4 °F 47% 30.21 in 10.0 mi SE 12.7 mph - N/A   Clear
5:15 PM 26.6 °F 15.2 °F 8.6 °F 47% 30.20 in 10.0 mi SE 13.8 mph - N/A   Clear
5:35 PM 26.6 °F 16.8 °F 8.6 °F 47% 30.20 in 10.0 mi SE 10.4 mph - N/A   Clear
5:55 PM 26.6 °F 17.5 °F 8.6 °F 47% 30.20 in 10.0 mi SE 9.2 mph - N/A   Partly Cloudy
6:15 PM 26.6 °F 16.8 °F 10.4 °F 51% 30.21 in 10.0 mi SE 10.4 mph - N/A   Scattered Clouds
6:35 PM 24.8 °F 16.1 °F 10.4 °F 54% 30.22 in 10.0 mi SE 8.1 mph - N/A   Mostly Cloudy
6:55 PM 24.8 °F 15.3 °F 10.4 °F 54% 30.22 in 10.0 mi SE 9.2 mph - N/A   Overcast
7:15 PM 26.6 °F 16.8 °F 10.4 °F 51% 30.22 in 10.0 mi ESE 10.4 mph - N/A   Overcast
7:35 PM 24.8 °F 15.3 °F 10.4 °F 54% 30.22 in 10.0 mi ESE 9.2 mph - N/A   Overcast
7:55 PM 24.8 °F 16.1 °F 12.2 °F 59% 30.23 in 10.0 mi SE 8.1 mph - N/A   Overcast
8:15 PM 24.8 °F 16.1 °F 12.2 °F 59% 30.23 in 10.0 mi SE 8.1 mph - N/A   Overcast
8:35 PM 24.8 °F 16.1 °F 12.2 °F 59% 30.24 in 10.0 mi ESE 8.1 mph - N/A   Overcast
8:55 PM 24.8 °F 15.3 °F 10.4 °F 54% 30.24 in 10.0 mi ESE 9.2 mph - N/A   Overcast
9:15 PM 24.8 °F 15.3 °F 12.2 °F 59% 30.23 in 10.0 mi ESE 9.2 mph - N/A   Overcast
9:35 PM 24.8 °F 15.3 °F 10.4 °F 54% 30.23 in 10.0 mi ESE 9.2 mph - N/A   Overcast
9:55 PM 24.8 °F 15.3 °F 10.4 °F 54% 30.23 in 10.0 mi ESE 9.2 mph - N/A   Overcast
10:15 PM 24.8 °F 15.3 °F 10.4 °F 54% 30.23 in 10.0 mi ESE 9.2 mph - N/A   Overcast
10:35 PM 24.8 °F 15.3 °F 10.4 °F 54% 30.22 in 10.0 mi ESE 9.2 mph - N/A   Mostly Cloudy
10:55 PM 23.0 °F 13.1 °F 10.4 °F 59% 30.23 in 10.0 mi ESE 9.2 mph - N/A   Overcast
11:15 PM 24.8 °F 15.3 °F 10.4 °F 54% 30.23 in 10.0 mi ESE 9.2 mph - N/A   Overcast
11:35 PM 23.0 °F 13.1 °F 10.4 °F 59% 30.23 in 10.0 mi ESE 9.2 mph - N/A   Mostly Cloudy
11:55 PM 23.0 °F 13.9 °F 10.4 °F 59% 30.23 in 10.0 mi SE 8.1 mph - N/A   Mostly Cloudy